Regional Weather Roundup
Issued by NWS

Home | Current Version | Previous Version | Graphics & Text | Print | Product List | Glossary On
Versions: 1 2 3 4 5 6 7 8 9 10 11 12 13 14 15 16 17 18 19 20 21 22 23 24 25 26 27 28 29 30 31 32 33 34 35 36 37 38 39 40 41 42 43 44 45 46 47 48 49 50
000
ASUS43 KOAX 172210
RWRNE

WEATHER ROUNDUP FOR NEBRASKA
NATIONAL WEATHER SERVICE OMAHA NE
400 PM CST SAT FEB 17 2018

NOTES: SATELLITE DATA IS BEING USED TO AUGMENT CLOUD COVER ABOVE
       12000 FEET.
       "FAIR" INDICATES FEW OR NO CLOUDS BELOW 12,000 FEET WITH NO
       SIGNIFICANT WEATHER AND/OR OBSTRUCTIONS TO VISIBILITY.


NEZ001>004-019>022-054>056-172300-
NEBRASKA PANHANDLE

CITY           SKY/WX    TMP DP  RH WIND       PRES   REMARKS
SCOTTSBLUFF    SUNNY     51  16  24 W22G33    29.89F
ALLIANCE       MOSUNNY   49  15  25 W16G25    29.89F
CHADRON        SUNNY     38  25  59 NE9       29.89F WCI  31
GORDON         FAIR      38  20  48 CALM      29.92F
KIMBALL        FAIR      52  10  18 W21G28    29.92F
SIDNEY         SUNNY     52  12  20 NW12      29.94F
$$

NEZ057>060-069>072-079>082-172300-
SOUTHWEST NEBRASKA

CITY           SKY/WX    TMP DP  RH WIND       PRES   REMARKS
NORTH PLATTE   SUNNY     49  19  30 NW6       30.03F
IMPERIAL       SUNNY     50  17  27 NW7       30.02F
LEXINGTON      SUNNY     46  25  43 N7        30.07S
MCCOOK         SUNNY     49  22  34 NW12      30.06F
OGALLALA       SUNNY     51  17  26 NW10      29.98F
$$

NEZ005>010-023>029-035>040-094-172300-
NORTH CENTRAL NEBRASKA

CITY           SKY/WX    TMP DP  RH WIND       PRES   REMARKS
VALENTINE      SUNNY     41  22  46 W8        30.01S
AINSWORTH      MOSUNNY   38  25  58 W5        30.03S WCI  35
BROKEN BOW     SUNNY     43  22  43 NW10      30.05S
O`NEILL        SUNNY     38  26  62 NW13      30.07R WCI  31
ORD            SUNNY     44  24  45 NW13      30.05R
THEDFORD       SUNNY     44  19  37 W6        30.02F
$$

NEZ041-046>049-061>064-073>077-083>087-172300-
SOUTH CENTRAL NEBRASKA

CITY           SKY/WX    TMP DP  RH WIND       PRES   REMARKS
GRAND ISLAND   SUNNY     48  25  40 NW15      30.07R
AURORA         SUNNY     47  22  36 W14       30.08R
HASTINGS       SUNNY     47  23  38 NW13      30.08R
HEBRON         SUNNY     53  18  25 NW12      30.08S
HOLDREGE       SUNNY     48  23  37 NW8       30.07S
KEARNEY        SUNNY     47  23  38 NW12      30.08R
YORK           SUNNY     46  25  42 NW8       30.08S
$$

NEZ011>018-030>034-042>045-172300-
NORTHEAST NEBRASKA

CITY           SKY/WX    TMP DP  RH WIND       PRES   REMARKS
NORFOLK        MOSUNNY   38  27  64 NW9       30.06R WCI  31
ALBION         SUNNY     42  28  56 NW9       30.07R
BLAIR          MOSUNNY   44  27  51 NW14G21   30.09R
COLUMBUS       SUNNY     41  27  57 NW8       30.09R
FREMONT        CLOUDY    44  28  52 NW9       30.10R
TEKAMAH        SUNNY     40  28  62 NW12      30.10R WCI  33
WAYNE          MOSUNNY   36  28  71 NW10      30.08R WCI  29
$$

NEZ050>053-065>068-078-088>093-172300-
SOUTHEAST NEBRASKA

CITY           SKY/WX    TMP DP  RH WIND       PRES   REMARKS
LINCOLN        SUNNY     49  23  36 NW13G24   30.11R
OMAHA EPPLEY   MOSUNNY   46  25  43 NW20G25   30.09R
BEATRICE       SUNNY     52  22  31 NW9       30.09R
FALLS CITY     SUNNY     53  18  25 W16G22    30.08R
NEBRASKA CITY  SUNNY     48  24  38 NW16G22   30.09R
PLATTSMOUTH    SUNNY     46  27  47 W16G22    30.09R
$$

NEZ044-045-051>053-067-172300-
OMAHA AREA

CITY           SKY/WX    TMP DP  RH WIND       PRES   REMARKS
OMAHA EPPLEY   MOSUNNY   46  25  43 NW20G25   30.09R
BLAIR          MOSUNNY   44  27  51 NW14G21   30.09R
FREMONT        CLOUDY    44  28  52 NW9       30.10R
MILLARD        SUNNY     47  25  42 W12G18    30.09R
OFFUTT AFB     SUNNY     47  22  37 NW17      30.08R
PLATTSMOUTH    SUNNY     46  27  47 W16G22    30.09R
WAHOO          FAIR      45  25  46 NW12      30.10R
$$




USA.gov is the U.S. government's official web portal to all federal, state and local government web resources and services.